Location: Ward Pound Ridge Reservation
(41.2500°N, 73.6000°W)
Time: 11:50:23
(UTC-05:00)

Envisat - Pass Details

Date: 13 October 2017
Orbit: 764 x 766 km, 98.2° (Epoch: 18 December)

Event Time Altitude Azimuth Distance (km) Brightness Sun altitude
Exits shadow 20:57:01 51° 320° (NW) 957 3.6 -30.7°
Drops below altitude 10° 21:00:56 10° 342° (NNW) 2,313 5.9 -31.4°
Sets 21:03:16 0° 345° (NNW) 3,243 6.7 -31.9°
